This demonstration page uses our WeatherBlox Daily Observations layout. Learn more.

Left ArrowRight Arrow

Hourly Observations for April 12, 2015

Temp ( °F °C ) Dew Point ( °F °C ) Humidity (%) Winds ( mph kmh ) Pressure ( in mb ) Visibility ( mi km ) Precip ( " mm )
12:53 am 00:53 Clear 43 6.1 38 3.3 82 82 Calm 30.25 1025 10 16.0934 0 0
1:53 am 01:53 Clear 44 6.7 38 3.3 79 79 Calm 30.25 1024 10 16.0934 0 0
2:53 am 02:53 Clear 41 5 36 2.2 82 82 Calm 30.24 1024 10 16.0934 0 0
3:53 am 03:53 Clear 40 4.4 37 2.8 89 89 Calm 30.25 1024 10 16.0934 0 0
4:53 am 04:53 Clear 38 3.3 35 1.7 89 89 Calm 30.24 1024 10 16.0934 0 0
5:53 am 05:53 Clear 38 3.3 35 1.7 89 89 Calm 30.24 1024 10 16.0934 0 0
6:53 am 06:53 Clear 37 2.8 35 1.7 93 93 Calm 30.25 1024 10 16.0934 0 0
7:53 am 07:53 Sunny 40 4.4 38 3.3 93 93 Calm 30.27 1025 10 16.0934 0 0
8:53 am 08:53 Sunny 48 8.9 42 5.6 80 80 Calm 30.27 1025 10 16.0934 0 0
9:53 am 09:53 Sunny 55 12.8 38 3.3 53 53 E 6 9 30.27 1025 10 16.0934 0 0
10:53 am 10:53 Sunny 61 16.1 34 1.1 36 36 VRB 5 7 30.25 1024 10 16.0934 0 0
11:53 am 11:53 Sunny 64 17.8 35 1.7 34 34 VRB 5 7 30.24 1024 10 16.0934 0 0
12:53 pm 12:53 Sunny 68 20 35 1.7 30 30 VRB 6 9 30.21 1023 10 16.0934 0 0
1:53 pm 13:53 Sunny 69 20.6 33 0.6 26 26 undefined N/A 30.18 1022 10 16.0934 0 0
2:53 pm 14:53 Sunny 71 21.7 32 0 24 24 Calm 30.15 1021 10 16.0934 0 0
3:53 pm 15:53 Sunny 73 22.8 33 0.6 23 23 ESE 5 7 30.13 1020 10 16.0934 0 0
4:53 pm 16:53 Sunny 74 23.3 29 -1.7 19 19 VRB 5 7 30.12 1020 10 16.0934 0 0
5:53 pm 17:53 Sunny 73 22.8 31 -0.6 21 21 VRB 3 6 30.11 1020 10 16.0934 0 0
6:53 pm 18:53 Sunny 72 22.2 36 2.2 27 27 Calm 30.11 1020 10 16.0934 0 0
7:53 pm 19:53 Sunny 70 21.1 35 1.7 28 28 Calm 30.09 1019 10 16.0934 0 0
8:53 pm 20:53 Clear 66 18.9 37 2.8 34 34 ESE 5 7 30.07 1018 10 16.0934 0 0
9:53 pm 21:53 Clear 63 17.2 38 3.3 40 40 E 5 7 30.09 1019 10 16.0934 0 0
10:53 pm 22:53 Clear 58 14.4 44 6.7 60 60 NNE 3 6 30.09 1019 10 16.0934 0 0
11:53 pm 23:53 Clear 56 13.3 40 4.4 55 55 E 3 6 30.07 1018 10 16.0934 0 0

Powered by AerisWeather